Location: Brantley
(31.5822°N, 86.2569°W)
Time: 20:07:33
(UTC+00:00)

Injun/Solrad 3 - Pass Details

Date: 19 February 2026
Orbit: 872 x 984 km, 66.8° (Epoch: 8 March)

Event Time Altitude Azimuth Distance (km) Brightness Sun altitude
Rises 16:17:40 0° 209° (SSW) 3,445 11.2 40.9°
Reaches altitude 10° 16:20:09 10° 212° (SSW) 2,509 10.6 41.2°
Maximum altitude 16:25:54 71° 296° (WNW) 920 8.4 41.9°
Drops below altitude 10° 16:31:47 10° 21° (NNE) 2,549 10.0 42.5°
Sets 16:34:19 0° 23° (NNE) 3,504 10.6 42.8°
